Tracking 20621 objects as of 31-Mar-2020
HD Live streaming from Space Station
objects crossing your sky now

ITALSAT 1

Track ITALSAT 1 now!
ITALSAT 1 is classified as:


NORAD ID: 21055
Int'l Code: 1991-003A
Perigee: 35,793.5 km
Apogee: 35,966.0 km
Inclination: 14.9 °
Period: 1,440.5 minutes
Semi major axis: 42250 km
RCS: 3.4358 m2 (large)
Launch date: January 15, 1991
Source: Italy (IT)
Launch site: FRENCH GUIANA (FRGUI)
aabbcc
Your satellite tracking list
Your tracking list is empty




NASA's NSSDC Master Catalog

Two Line Element Set (TLE):
1 21055U 91003A   20089.48229351 +.00000099 +00000-0 +00000-0 0  9997
2 21055 014.9405 009.8082 0020422 357.3078 200.9978 00.99965754094381
Source of the keplerian elements: AFSPC